TimeEDT,TemperatureF,Dew PointF,Humidity,Sea Level PressureIn,VisibilityMPH,Wind Direction,Wind SpeedMPH,Gust SpeedMPH,PrecipitationIn,Events,Conditions,WindDirDegrees,DateUTC
12:15 AM,65.3,63.7,94,30.08,10.0,Calm,Calm,-,N/A,,Mostly Cloudy,0,2013-04-19 04:15:00
12:35 AM,65.3,63.7,94,30.08,10.0,Calm,Calm,-,N/A,,Mostly Cloudy,0,2013-04-19 04:35:00
12:55 AM,64.9,63.3,94,30.08,7.0,Calm,Calm,-,N/A,,Scattered Clouds,0,2013-04-19 04:55:00
1:15 AM,64.4,63.0,95,30.07,10.0,Calm,Calm,-,0.01,,Clear,0,2013-04-19 05:15:00
1:35 AM,64.0,62.6,95,30.06,7.0,Calm,Calm,-,0.01,,Clear,0,2013-04-19 05:35:00
1:55 AM,64.4,63.1,96,30.04,7.0,Calm,Calm,-,0.01,,Clear,0,2013-04-19 05:55:00
2:15 AM,64.9,63.5,95,30.03,10.0,Calm,Calm,-,N/A,,Scattered Clouds,0,2013-04-19 06:15:00
2:35 AM,65.1,63.7,95,30.02,7.0,SE,3.5,-,N/A,,Scattered Clouds,140,2013-04-19 06:35:00
2:55 AM,65.3,63.7,94,30.02,7.0,SSE,3.5,-,N/A,,Clear,150,2013-04-19 06:55:00
3:15 AM,65.3,63.9,95,30.00,7.0,Calm,Calm,-,N/A,,Mostly Cloudy,0,2013-04-19 07:15:00
3:35 AM,65.7,64.4,96,30.00,7.0,SSE,4.6,-,N/A,,Overcast,150,2013-04-19 07:35:00
3:55 AM,66.2,64.4,94,29.99,7.0,SE,3.5,-,N/A,,Overcast,140,2013-04-19 07:55:00
4:15 AM,66.4,64.8,95,29.99,7.0,SSE,5.8,-,N/A,,Overcast,160,2013-04-19 08:15:00
4:35 AM,66.7,64.9,94,29.98,10.0,SSE,5.8,-,N/A,,Overcast,160,2013-04-19 08:35:00
4:55 AM,66.9,65.1,94,29.98,10.0,SSE,3.5,-,N/A,,Overcast,160,2013-04-19 08:55:00
5:15 AM,66.6,64.8,94,29.98,10.0,Calm,Calm,-,N/A,,Mostly Cloudy,0,2013-04-19 09:15:00
5:35 AM,66.4,64.6,94,29.98,10.0,Calm,Calm,-,N/A,,Scattered Clouds,0,2013-04-19 09:35:00
5:55 AM,66.2,64.4,94,29.98,10.0,Calm,Calm,-,N/A,,Mostly Cloudy,0,2013-04-19 09:55:00
6:15 AM,66.6,64.6,93,29.98,10.0,Calm,Calm,-,N/A,,Overcast,0,2013-04-19 10:15:00
6:35 AM,67.3,65.3,93,29.99,10.0,SSE,4.6,-,N/A,,Overcast,160,2013-04-19 10:35:00
6:55 AM,67.5,65.5,93,29.99,7.0,Calm,Calm,-,N/A,,Overcast,0,2013-04-19 10:55:00
7:15 AM,68.0,65.7,92,29.99,7.0,SSE,3.5,-,N/A,,Overcast,160,2013-04-19 11:15:00
7:35 AM,68.4,66.2,93,30.00,7.0,SSE,3.5,-,N/A,,Overcast,160,2013-04-19 11:35:00
7:55 AM,68.9,66.4,92,30.00,7.0,South,4.6,-,N/A,,Overcast,170,2013-04-19 11:55:00
8:15 AM,69.8,66.7,90,30.00,7.0,SSE,4.6,-,N/A,,Mostly Cloudy,160,2013-04-19 12:15:00
8:35 AM,70.3,66.9,89,30.00,10.0,South,3.5,-,N/A,,Clear,190,2013-04-19 12:35:00
8:55 AM,71.2,66.7,86,30.00,10.0,South,3.5,-,N/A,,Clear,190,2013-04-19 12:55:00
9:15 AM,72.5,67.1,83,30.01,10.0,Calm,Calm,-,N/A,,Scattered Clouds,0,2013-04-19 13:15:00
9:35 AM,73.0,66.9,81,30.00,10.0,SSW,4.6,-,N/A,,Scattered Clouds,200,2013-04-19 13:35:00
9:55 AM,73.8,67.1,80,30.00,10.0,SSW,5.8,-,N/A,,Scattered Clouds,200,2013-04-19 13:55:00
10:15 AM,75.2,67.1,76,30.00,10.0,South,5.8,-,N/A,,Mostly Cloudy,190,2013-04-19 14:15:00
10:35 AM,77.2,67.5,72,29.99,7.0,South,8.1,-,N/A,,Mostly Cloudy,180,2013-04-19 14:35:00
10:55 AM,77.9,66.9,69,29.99,10.0,South,6.9,-,N/A,,Mostly Cloudy,190,2013-04-19 14:55:00
11:15 AM,77.0,66.6,70,29.99,10.0,SW,4.6,-,N/A,,Overcast,220,2013-04-19 15:15:00
11:35 AM,79.5,66.9,65,29.98,10.0,SSW,8.1,-,N/A,,Mostly Cloudy,200,2013-04-19 15:35:00
11:55 AM,79.2,66.7,66,29.97,10.0,South,8.1,-,N/A,,Scattered Clouds,190,2013-04-19 15:55:00
12:15 PM,78.8,67.3,68,29.96,10.0,SSW,4.6,-,N/A,,Scattered Clouds,210,2013-04-19 16:15:00
12:35 PM,78.3,67.8,70,29.95,10.0,South,5.8,-,N/A,,Scattered Clouds,180,2013-04-19 16:35:00
12:55 PM,80.2,67.8,66,29.94,10.0,SSW,5.8,-,N/A,,Scattered Clouds,200,2013-04-19 16:55:00
1:15 PM,81.3,66.9,61,29.93,10.0,South,10.4,18.4,N/A,,Mostly Cloudy,180,2013-04-19 17:15:00
1:35 PM,80.2,66.4,63,29.93,10.0,South,6.9,-,N/A,,Mostly Cloudy,190,2013-04-19 17:35:00
1:55 PM,80.4,66.7,63,29.91,10.0,SSW,6.9,-,N/A,,Mostly Cloudy,200,2013-04-19 17:55:00
2:15 PM,80.6,66.6,62,29.90,7.0,South,10.4,19.6,N/A,,Scattered Clouds,190,2013-04-19 18:15:00
2:35 PM,81.0,65.5,59,29.90,4.0,SSW,10.4,23.0,N/A,,Haze,210,2013-04-19 18:35:00
2:55 PM,81.0,65.8,60,29.88,7.0,South,8.1,21.9,N/A,,Scattered Clouds,180,2013-04-19 18:55:00
3:15 PM,80.1,66.4,63,29.87,7.0,SSE,10.4,23.0,N/A,,Scattered Clouds,160,2013-04-19 19:15:00
3:35 PM,79.0,66.4,65,29.87,7.0,South,4.6,-,N/A,,Mostly Cloudy,190,2013-04-19 19:35:00
3:55 PM,79.0,66.4,65,29.87,7.0,South,6.9,-,N/A,,Mostly Cloudy,180,2013-04-19 19:55:00
4:15 PM,77.9,66.2,67,29.87,10.0,South,5.8,-,N/A,,Mostly Cloudy,190,2013-04-19 20:15:00
4:35 PM,77.2,66.2,69,29.86,10.0,South,9.2,17.3,N/A,,Overcast,180,2013-04-19 20:35:00
4:55 PM,76.5,66.2,70,29.86,7.0,South,5.8,19.6,N/A,,Overcast,180,2013-04-19 20:55:00
5:15 PM,77.4,66.2,68,29.86,7.0,South,6.9,20.7,N/A,,Mostly Cloudy,180,2013-04-19 21:15:00
5:35 PM,77.0,66.4,70,29.86,7.0,South,9.2,-,N/A,,Mostly Cloudy,190,2013-04-19 21:35:00
5:55 PM,76.5,66.6,71,29.85,10.0,SSE,6.9,-,N/A,,Mostly Cloudy,160,2013-04-19 21:55:00
6:15 PM,75.2,67.1,76,29.85,10.0,South,8.1,-,N/A,,Mostly Cloudy,170,2013-04-19 22:15:00
6:35 PM,75.2,66.7,75,29.86,10.0,SSW,8.1,16.1,N/A,,Mostly Cloudy,200,2013-04-19 22:35:00
6:55 PM,74.5,66.4,76,29.86,10.0,South,6.9,17.3,N/A,,Scattered Clouds,180,2013-04-19 22:55:00
7:15 PM,74.3,66.2,76,29.86,10.0,SSE,5.8,-,N/A,,Scattered Clouds,160,2013-04-19 23:15:00
7:35 PM,74.3,66.2,76,29.86,10.0,South,5.8,-,N/A,,Mostly Cloudy,190,2013-04-19 23:35:00
7:55 PM,74.3,66.4,76,29.87,10.0,South,8.1,-,N/A,,Scattered Clouds,190,2013-04-19 23:55:00
8:15 PM,74.3,66.2,76,29.87,10.0,South,4.6,-,N/A,,Mostly Cloudy,190,2013-04-20 00:15:00
8:35 PM,74.5,66.4,76,29.87,10.0,South,6.9,-,N/A,,Overcast,180,2013-04-20 00:35:00
8:55 PM,74.3,66.7,77,29.87,10.0,SSW,5.8,-,N/A,,Overcast,200,2013-04-20 00:55:00
9:15 PM,72.9,65.8,79,29.90,5.0,West,18.4,29.9,0.09,Rain,Heavy Rain,260,2013-04-20 01:15:00
9:35 PM,65.7,63.7,93,29.90,1.2,SW,3.5,19.6,0.45,Rain,Heavy Rain,220,2013-04-20 01:35:00
9:55 PM,65.7,63.7,93,29.92,7.0,Calm,Calm,-,0.48,Rain,Light Rain,0,2013-04-20 01:55:00
10:15 PM,65.8,64.0,94,29.89,4.0,SW,3.5,-,0.04,Rain,Rain,220,2013-04-20 02:15:00
10:35 PM,65.8,64.4,95,29.89,7.0,Calm,Calm,-,0.07,Rain,Light Rain,0,2013-04-20 02:35:00
10:55 PM,65.8,64.4,95,29.89,7.0,Calm,Calm,-,0.08,Rain,Light Rain,0,2013-04-20 02:55:00
11:15 PM,65.8,64.4,95,29.88,10.0,SSE,3.5,-,0.01,Rain,Light Rain,160,2013-04-20 03:15:00
11:35 PM,65.8,64.4,95,29.88,7.0,SSE,3.5,-,0.03,Rain,Light Rain,160,2013-04-20 03:35:00
11:55 PM,65.8,64.4,95,29.87,7.0,South,3.5,-,0.04,Rain,Light Rain,180,2013-04-20 03:55:00